Regional Weather Roundup
Issued by NWS

Home | Current Version | Previous Version | Text Only | Print | Product List | Glossary Off
Versions: 1 2 3 4 5 6 7 8 9 10 11 12 13 14 15 16 17 18 19 20 21 22 23 24 25 26 27 28 29 30 31 32 33 34 35 36 37 38 39 40 41 42 43 44 45 46 47 48 49 50

000
ASUS43 KMPX 201901
RWRMN
WEATHER ROUNDUP FOR MINNESOTA
NATIONAL WEATHER SERVICE TWIN CITIES/CHANHASSEN MN
100 PM CST THU NOV 20 2014


NOTE: "FAIR" INDICATES FEW OR NO CLOUDS BELOW 12,000 FEET WITH NO
SIGNIFICANT WEATHER AND/OR OBSTRUCTIONS TO VISIBILITY. N/A MEANS
CURRENT SKY AND/OR WEATHER CONDITIONS ARE NOT AVAILABLE.

MNZ060>063-068>070-202000-
   Twin Cities Metro

CITY           SKY/WX    TMP DP  RH WIND       PRES   REMARKS
TWIN CITIES    SUNNY     17   2  51 NW18G25   30.14R WCI   1
ST PAUL        SUNNY     17   1  49 NW17G24   30.15S WCI   1
CRYSTAL        SUNNY     17   1  49 W16       30.13R WCI   2
BLAINE         SUNNY     18   3  53 W15       30.12R WCI   3
LAKEVILLE      SUNNY     16   3  57 W18       30.13S WCI  -1
EDEN PRAIRIE   SUNNY     18   3  52 W16       30.14S WCI   3
SOUTH ST PAUL  SUNNY     19   1  45 W17G23    30.13S WCI   4
LAKE ELMO      FAIR      18   3  53 W13       30.13R WCI   4
$$
MNZ001>005-007-008-013>017-022>024-027-028-202000-
   Northwest Minnesota

CITY           SKY/WX    TMP DP  RH WIND       PRES   REMARKS
BEMIDJI        SUNNY      8  -2  62 W14       30.07S WCI  -8
HALLOCK        SUNNY     10   1  67 CALM      30.13S
ROSEAU         SUNNY      9   1  72 W9        30.09S WCI  -5
WARROAD        SUNNY     10   0  61 W9        30.08S WCI  -2
THIEF RVR FALL SUNNY      9   1  72 NW8       30.12S WCI  -4
CROOKSTON      SUNNY     10   1  67 NW3       30.16S
FOSSTON        SUNNY     12   0  57 W7        30.11F WCI   2
DETROIT LAKES  SUNNY     12   3  67 NW8       30.12S WCI   1
MOORHEAD       SUNNY     18   3  53 N5        30.16S WCI  11
PARK RAPIDS    SUNNY     11   0  61 NW16      30.07S WCI  -6
MAHNOMEN       FAIR       8  -1  69 NW5       30.12S WCI  -1
$$
MNZ006-009>011-018-025>026-202000-
   North Central Minnesota

CITY           SKY/WX    TMP DP  RH WIND       PRES   REMARKS
BAUDETTE       MOSUNNY    7  -2  66 NW8       30.05S WCI  -6
FLAG ISLAND    SUNNY      7  -2  66 NW9       30.05F WCI  -7
INTL FALLS     SUNNY     10  -2  58 NW12      30.02S WCI  -5
WASKISH        SUNNY     10   1  67 W9        30.07R WCI  -2
BIG FORK       SUNNY     12   0  57 W8        30.03S WCI   1
LONGVILLE      SUNNY     12   0  57 NW7       30.07R WCI   2
GRAND RAPIDS   SUNNY      9   0  66 W13       30.02S WCI  -7
CRANE LAKE     CLOUDY     7   1  78 W7        30.02R HAZE    WCI  -5
ORR            SUNNY     10  -2  56 NW9       29.98R WCI  -2
COOK           MOSUNNY   10   0  61 NW10      30.00R WCI  -3
WALKER         FAIR      10  -2  58 NW13      30.07S WCI  -6
$$
MNZ012-019>021-037-202000-
   Northeast Minnesota

CITY           SKY/WX    TMP DP  RH WIND       PRES   REMARKS
DULUTH         MOSUNNY   12  -1  56 NW16G23   29.98R WCI  -5
ELY            PTSUNNY    9   0  66 NW13G20   29.95S WCI  -7
HIBBING        MOSUNNY   12  -2  53 NW14      30.01R WCI  -3
EVELETH        SUNNY     10   0  61 NW15      30.00R WCI  -6
DULUTH HARBOR  SUNNY     16   1  53 W17       30.06R WCI   0
TWO HARBORS    SUNNY     16   1  53 W15       29.97R WCI   1
SILVER BAY     SUNNY     14  -2  48 W10G17    29.96R WCI   1
GRAND MARAIS     N/A     12  -5  46 W9G17     29.99R WCI   0
G MARAIS ARPRT SUNNY      3  -9  55 NW10G17   29.85R WCI -12
$$
MNZ029>031-032-039>041-046>048-054>057-064-202000-
   West Central Minnesota

CITY           SKY/WX    TMP DP  RH WIND       PRES   REMARKS
FERGUS FALLS   SUNNY     14   3  62 NW6       30.18S WCI   5
WHEATON        SUNNY     14   7  73 W6        30.20S WCI   5
MORRIS         SUNNY     14   5  67 W8        30.16S WCI   3
ALEXANDRIA     SUNNY     13   3  64 NW10      30.12S WCI   0
ELBOW LAKE       N/A     12   5  72 W7        30.15S WCI   2
WADENA         SUNNY     12   0  57 NW16      30.10S WCI  -4
GLENWOOD       SUNNY     14   3  62 W9        30.13S WCI   2
APPLETON       SUNNY     16   7  67 W6        30.19S WCI   7
BENSON         SUNNY     12   7  79 NW9       30.17S WCI   0
ORTONVILLE     SUNNY     16   5  62 W7        30.17F WCI   6
MADISON        SUNNY     18   9  68 W7        30.19S WCI   8
WILLMAR        FAIR      12   5  73 W8        30.17S WCI   1
$$
MNZ033>034-036-042>043-049>051-058-059-202000-
   Central Minnesota

CITY           SKY/WX    TMP DP  RH WIND       PRES   REMARKS
ST CLOUD       SUNNY     16   2  54 NW15G22   30.12S WCI   1
SAUK CENTRE    FAIR      14   3  60 NW13      30.13S WCI   0
PAYNESVILLE    SUNNY     11   2  67 SW14      30.15S WCI  -4
AITKIN         SUNNY     18   0  45 NW5       30.05S WCI  11
PINE RIVER     SUNNY     12   1  62 W6G16     30.10S WCI   3
BRAINERD       SUNNY     13  -1  54 W15       30.09R WCI  -3
STAPLES        SUNNY     12   0  57 NW12G17   30.09S WCI  -2
LONG PRAIRIE   FAIR      14   1  57 W10       30.12R WCI   1
LITTLE FALLS   SUNNY     16   0  48 W13       30.12R WCI   2
LITCHFIELD     SUNNY     16   7  67 W8        30.15S WCI   5
BUFFALO        SUNNY     16   2  55 W12       30.16R WCI   3
MAPLE LAKE     SUNNY     17   4  59 W10       30.15S WCI   4
$$
MNZ037-044-045-052-053-202000-
   East Central Minnesota

CITY           SKY/WX    TMP DP  RH WIND       PRES   REMARKS
PRINCETON      SUNNY     16   1  53 W14G21    30.12R WCI   1
MORA             N/A    N/A N/A N/A MISG        N/A
CAMBRIDGE      SUNNY     16   1  53 W10G16    30.10R WCI   3
RUSH CITY      SUNNY     17   0  48 W10       30.10S WCI   4
MOOSE LAKE     SUNNY     14   0  52 NW9       30.04S WCI   2
HINCKLEY       FAIR      16   0  48 W8G16     30.08R WCI   5
CLOQUET        SUNNY     12   0  57 W13       30.01R WCI  -3
MCGREGOR       SUNNY     14   0  52 W8        30.06R WCI   3
$$
MNZ071>073-080-081-089-090-097-098-202000-
   Southwest Minnesota

CITY           SKY/WX    TMP DP  RH WIND       PRES   REMARKS
MONTEVIDEO     SUNNY     18   7  62 NW6       30.20R WCI   9
GRANITE FALLS  SUNNY     14   7  72 W10       30.21S WCI   2
CANBY          SUNNY     17   8  69 NW5       30.19S WCI  10
MARSHALL       SUNNY     16   7  67 NW7       30.17F WCI   6
REDWOOD FALLS  SUNNY     17   7  64 NW13      30.18S WCI   4
OLIVIA         SUNNY     16   9  73 W10       30.17S WCI   3
PIPESTONE      SUNNY     16  10  79 NW9       30.14F WCI   4
WINDOM         SUNNY     18  10  73 W12       30.16R WCI   5
WORTHINGTON    SUNNY     16   9  73 W12       30.16S WCI   3
JACKSON        SUNNY     19   9  63 W9        30.16S WCI   9
TRACY          SUNNY     19   9  66 NW7       30.17S WCI  10
SLAYTON        SUNNY     16   8  71 W10       30.15F WCI   4
$$
MNZ065>067-074>077-082>085-091>093-202000-
   South Central Minnesota

CITY           SKY/WX    TMP DP  RH WIND       PRES   REMARKS
MANKATO        SUNNY     18   5  57 NW14      30.16S WCI   4
NEW ULM        SUNNY     18  10  73 W9        30.17S WCI   6
ST JAMES       SUNNY     19  10  68 W12G17    30.19R WCI   7
FAIRMONT       SUNNY     19   9  63 NW10      30.16F WCI   8
GLENCOE        SUNNY     17   8  68 W12       30.16S WCI   4
FARIBAULT      SUNNY     18   7  62 W13       30.15R WCI   4
OWATONNA       SUNNY     16   3  57 W15       30.13S WCI   1
WASECA         SUNNY     18   5  57 W15       30.17R WCI   3
ALBERT LEA     SUNNY     18   9  68 W8        30.14S WCI   7
$$
MNZ078>079-086>088-094>096-202000-
   Southeast Minnesota

CITY           SKY/WX    TMP DP  RH WIND       PRES   REMARKS
ROCHESTER      SUNNY     16   5  62 NW18      30.11R WCI   0
RED WING       SUNNY     19   0  42 W17G26    30.11S WCI   4
STANTON        SUNNY     19   5  56 W15       30.13S WCI   4
DODGE CENTER   SUNNY     16   5  62 NW14      30.11R WCI   1
WINONA         SUNNY     21   1  42 NW15G21   30.12S WCI   8
AUSTIN         SUNNY     16   5  62 W12       30.12S WCI   3
PRESTON        SUNNY     17   4  59 NW18      30.11R WCI   0
$$
ABBREVIATIONS USED IN REMARKS
   TC - TEMPERATURES IN CELSIUS
  WCI - WIND CHILL INDEX
   HX - HEAT INDEX
  VSB - VISIBILITY
$$


USA.gov is the U.S. government's official web portal to all federal, state and local government web resources and services.